Home > Weather > Quispamsis > Past weeks

Flag for Canada Past Weather in Quispamsis, New Brunswick, Canada — Yesterday and Last 2 Weeks

Now
52 °F

Fog.


Feels Like: 49 °F
Forecast: 53 / 69 °F
Wind: 7 mph from Southwest

Location: Saint John

Current Time: May 31, 2016 at 7:18:24 AM

Latest Report: May 31, 2016 at 6:00 AM


Visibility: 0 mi

Pressure: 29.80 "Hg

Humidity: 94%

Dew Point: 50 °F

Location of QuispamsisLocation

Past Weather in Quispamsis — Graph

°F

Quispamsis Temperature Yesterday

Maximum temperature yesterday: 54 °F (at 3:00 PM)
Minimum temperature yesterday: 46 °F (at 6:00 AM)
Average temperature yesterday: 51 °F

High & Low Weather Summary for the Past Weeks

 TemperatureHumidityPressure
High75 °F (May 21, 11:00 AM)100% (May 20, 4:00 AM)30.33 "Hg (May 20, 4:00 AM)
Low32 °F (May 19, 4:00 AM)28% (May 19, 2:00 PM)29.49 "Hg (May 16, 5:00 AM)
Average53 °F78%30.01 "Hg
* Reported May 16 5:00 AM — May 31 5:00 AM, Quispamsis, Weather by CustomWeather, © 2016

Note: Actual official high and low records may vary slightly from our data, if they occured in-between our weather recording intervals... More about our weather records

Advertising

Quispamsis Weather History for the Previous 24 Hours

Scroll right to see more
 ConditionsComfort  
Time TempWeatherWind HumidityBarometerVisibility
5:00 AM
Tue, May 31
50 °FFog.8 mph100%29.80 "Hg0 mi
4:00 AM52 °FFog.13 mph94%29.80 "Hg0 mi
3:00 AM50 °FFog.12 mph100%29.80 "Hg0 mi
2:00 AM50 °FFog.12 mph100%29.81 "Hg0 mi
1:00 AM52 °FFog.10 mph94%29.82 "Hg0 mi
12:00 AM52 °FFog.13 mph100%29.83 "Hg1 mi
11:00 PM
Mon, May 30
54 °FFog.8 mph94%29.85 "Hg1 mi
10:00 PM52 °FFog.6 mph94%29.85 "Hg0 mi
9:00 PM52 °FFog.9 mph94%29.85 "Hg1 mi
8:00 PM52 °FFog.13 mph94%29.86 "Hg1 mi
7:00 PM52 °FFog.6 mph100%29.86 "Hg1 mi
6:00 PM52 °FFog.10 mph100%29.87 "Hg1 mi
5:04 PM52 °FFog.14 mph94%29.88 "Hg1 mi
4:00 PM54 °FFog.14 mph94%29.89 "Hg3 mi
3:00 PM54 °FLight rain. Fog.7 mph100%29.90 "Hg2 mi
2:00 PM52 °FLight rain. Fog.9 mph100%29.94 "Hg5 mi
1:00 PM52 °FLight rain. Fog.9 mph94%29.95 "Hg3 mi
12:00 PM52 °FFog.13 mph94%29.98 "Hg3 mi
11:00 AM52 °FDrizzle. Fog.10 mph94%29.99 "Hg1 mi
10:03 AM52 °FDrizzle. Fog.7 mph94%30.02 "Hg1 mi
9:00 AM50 °FDrizzle. Fog.6 mph94%30.04 "Hg1 mi
8:00 AM48 °FFog.6 mph94%30.04 "Hg2 mi
7:00 AM48 °FDrizzle. Fog.7 mph94%30.07 "Hg2 mi
Weather by CustomWeather, © 2016

See weather overviewHow to use our weather pages